Park Rapids, MN

10:15 AM CDT on August 22, 2017 (GMT -0500)
Park Rapids Municipal

Weather History for KPKD - September, 2012

Change the Weather History Date:

Tuesday, September 18, 2012

  Actual Average Record
Temperature  
Mean Temperature 42 °F -  
Max Temperature 55 °F 68 °F 91 °F (2000)
Min Temperature 28 °F 45 °F 27 °F (1971)
Degree Days  
Heating Degree Days 24    
Moisture  
Dew Point 31 °F    
Average Humidity 64    
Maximum Humidity 93    
Minimum Humidity 37    
Precipitation  
Precipitation 0.00 in - - ()
Sea Level Pressure  
Sea Level Pressure 29.98 in    
Wind  
Wind Speed 3 mph (SSW)    
Max Wind Speed 13 mph    
Max Gust Speed 20 mph    
Visibility 10 miles    
Events      
Averages and records for this station are not official NWS values.
T = Trace of Precipitation, MM = Missing Value Source: NWS Daily Summary

Daily Weather History Graph

Daily Weather History Graph

Search for Another Location

Airport or City:

Trip Planner

Search our weather history database for the weather conditions in past years. The results will help you decide how hot, cold, wet, or windy it might be!

Date:

Astronomy

Sep. 18, 2012 Rise Set
Actual Time 7:02 AM CDT 7:24 PM CDT
Civil Twilight 6:32 AM CDT 7:55 PM CDT
Nautical Twilight 5:56 AM CDT 8:31 PM CDT
Astronomical Twilight 5:18 AM CDT 9:08 PM CDT
Moon 10:19 AM CDT (9/18) 8:31 PM CDT (9/18)
Length of Visible Light 13h 23m
Length of Day
12h 22m
Waxing Crescent, 9% of the Moon is Illuminated
Sep 18
Waxing Crescent
Sep 22
First Quarter
Sep 29
Full
Oct 8
Last Quarter
Oct 15
New

Hourly Weather History & Observations

Time (CDT) Temp. Windchill Dew Point Humidity Pressure Visibility Wind Dir Wind Speed Gust Speed Precip Events Conditions
12:53 AM 34.0 °F - 30.0 °F 85% 30.07 in 10.0 mi Calm Calm - N/A   Partly Cloudy
1:53 AM 34.0 °F - 30.0 °F 85% 30.06 in 10.0 mi Calm Calm - N/A   Clear
2:53 AM 32.0 °F - 28.0 °F 85% 30.06 in 10.0 mi Calm Calm - N/A   Clear
3:53 AM 30.0 °F - 27.0 °F 88% 30.05 in 10.0 mi Calm Calm - N/A   Clear
4:53 AM 28.0 °F 24.2 °F 26.1 °F 92% 30.06 in 10.0 mi WNW 3.5 mph - N/A   Clear
5:53 AM 30.9 °F - 28.0 °F 89% 30.06 in 10.0 mi Calm Calm - N/A   Clear
6:53 AM 30.9 °F - 28.0 °F 89% 30.06 in 10.0 mi Calm Calm - N/A   Clear
7:53 AM 32.0 °F - 30.0 °F 92% 30.06 in 10.0 mi Calm Calm - N/A   Clear
8:53 AM 37.9 °F - 36.0 °F 93% 30.07 in 10.0 mi Calm Calm - N/A   Clear
9:53 AM 45.0 °F - 36.0 °F 71% 30.06 in 10.0 mi Calm Calm - N/A   Clear
10:53 AM 48.9 °F - 34.0 °F 56% 30.05 in 10.0 mi West 5.8 mph - N/A   Clear
11:53 AM - - - N/A% 30.00 in - North - - N/A   Unknown
12:53 PM 53.1 °F - 30.0 °F 41% 30.02 in 10.0 mi North - - N/A   Clear
1:53 PM 55.9 °F - 30.0 °F 37% 30.00 in 10.0 mi SW 9.2 mph - N/A   Scattered Clouds
2:53 PM 55.0 °F - 30.0 °F 38% 29.98 in 10.0 mi SW 9.2 mph 19.6 mph N/A   Mostly Cloudy
3:53 PM 54.0 °F - 28.9 °F 38% 29.96 in 10.0 mi SSW 10.4 mph - N/A   Scattered Clouds
4:53 PM 54.0 °F - 28.9 °F 38% 29.94 in 10.0 mi SW 10.4 mph - N/A   Overcast
5:53 PM 53.1 °F - 30.0 °F 41% 29.93 in 10.0 mi SSW 5.8 mph - N/A   Overcast
6:53 PM 52.0 °F - 30.0 °F 43% 29.91 in 10.0 mi South 5.8 mph - N/A   Overcast
7:53 PM 50.0 °F - 32.0 °F 50% 29.89 in 10.0 mi South 6.9 mph - N/A   Mostly Cloudy
8:53 PM 46.0 °F 41.9 °F 33.1 °F 61% 29.87 in 10.0 mi SSE 8.1 mph - N/A   Clear
9:53 PM 48.0 °F - 33.1 °F 56% 29.83 in 10.0 mi SSE 10.4 mph - N/A   Partly Cloudy
10:53 PM 48.0 °F - 33.1 °F 56% 29.81 in 10.0 mi SSE 9.2 mph - N/A   Mostly Cloudy
11:53 PM 48.9 °F - 33.1 °F 54% 29.75 in 10.0 mi SSE 12.7 mph - N/A   Mostly Cloudy